カタログに戻る

STARLINK-37217

運用中通信VLEO
NORAD 68335·PAYLOAD·🇺🇸 United States

打ち上げ Mar 22, 2026 から Cape Canaveral Space Force Station

Loading…

次のパス (今後24時間)

TLE

最新Source: CelesTrak SupGP

元期: Sep 15, 2026, 02:56 UTC

1 68335C 26059Q   26258.12270833 -.00020763  00000+0 -61342-3 0  2582
2 68335  53.1577 179.2023 0001337  81.3364  58.9913 15.34401926    19

AllMySatでSTARLINK-37217をリアルタイム追跡

Download on the App Store